FW0708 Weather Reports


time (UTC)temp
F
wind
direction
speed
knots
gust
knots
rain 1hr
in
rain 24hr
in
rain mn
in
humidity
%
barometer
mb
20260906173058 73 14 2.6 7.8 0.00 0.01 0.01 83 1018.5
20260906171551 73 319 3.5 9.6 0.00 0.01 0.01 80 1018.7
20260906170050 74 13 0.9 7.8 0.00 0.01 0.01 80 1018.7
20260906164547 74 71 3.5 9.6 0.00 0.01 0.01 80 1018.6
20260906163044 74 18 4.3 9.6 0.00 0.01 0.01 80 1018.5
20260906161541 74 336 2.6 7.0 0.00 0.01 0.01 81 1018.8
20260906160038 75 345 3.5 5.2 0.00 0.01 0.01 80 1018.6
20260906154533 74 27 1.7 4.3 0.00 0.01 0.01 82 1018.6
20260906153030 74 28 0.9 2.6 0.00 0.01 0.01 82 1018.6
20260906151525 73 21 0.9 2.6 0.00 0.01 0.01 83 1018.8
20260906150021 71 25 0.0 1.7 0.00 0.01 0.01 88 1019.0
20260906144520 69 50 0.0 1.7 0.00 0.01 0.01 92 1018.9
20260906143014 67 50 0.9 3.5 0.00 0.01 0.01 94 1019.0
20260906141520 66 79 0.0 2.6 0.00 0.01 0.01 96 1019.0
20260906140007 65 89 0.0 1.7 0.00 0.01 0.01 97 1019.2
20260906134505 65 107 0.0 0.9 0.00 0.01 0.01 98 1019.2
20260906133001 64 108 0.0 0.0 0.00 0.01 0.01 98 1019.1
20260906131600 63 108 0.0 0.9 0.00 0.01 0.01 98 1019.2
20260906130145 62 108 0.0 1.7 0.00 0.01 0.01 98 1019.1
20260906124606 61 108 0.0 0.9 0.00 0.01 0.01 98 1019.1
20260906123052 60 108 0.0 0.9 0.00 0.01 0.01 98 1019.1
20260906121601 60 108 0.0 0.0 0.00 0.01 0.01 97 1018.8
20260906120048 59 108 0.0 0.0 0.00 0.01 0.01 97 1018.7
20260906114544 59 108 0.0 0.0 0.00 0.01 0.01 97 1018.4
20260906113049 59 108 0.0 0.0 0.00 0.01 0.01 97 1018.1
20260906111540 59 108 0.0 0.0 0.00 0.01 0.01 97 1018.0
20260906110039 59 108 0.0 0.0 0.00 0.01 0.01 97 1017.8
20260906104539 59 108 0.0 0.0 0.00 0.01 0.01 97 1017.7
20260906103050 59 108 0.0 0.0 0.00 0.01 0.01 97 1017.7
20260906101537 59 108 0.0 0.0 0.01 0.01 0.01 97 1017.6
20260906100037 59 108 0.0 0.0 0.01 0.01 0.01 97 1017.6
20260906094535 59 108 0.0 0.0 0.01 0.01 0.01 96 1017.7
20260906093134 60 108 0.0 0.0 0.01 0.01 0.01 97 1017.7
20260906091533 60 108 0.0 0.9 0.00 0.00 0.00 97 1017.7
20260906090033 60 108 0.0 2.6 0.00 0.00 0.00 96 1017.8
20260906084531 60 107 0.0 0.9 0.00 0.00 0.00 96 1017.9
20260906083030 61 107 0.0 0.9 0.00 0.00 0.00 96 1017.9
20260906081529 61 107 0.0 0.9 0.00 0.00 0.00 96 1017.7
20260906080030 61 107 0.0 0.9 0.00 0.00 0.00 96 1017.7
20260906074528 61 107 0.0 0.9 0.00 0.01 0.00 96 1017.6
20260906073027 61 107 0.0 0.0 0.00 0.01 0.00 96 1017.7
20260906071527 61 107 0.0 1.7 0.00 0.01 0.00 96 1017.7
20260906070026 61 27 0.0 0.0 0.00 0.01 0.00 96 1017.7
20260906064533 61 27 0.0 0.9 0.00 0.01 0.00 95 1017.8
20260906063024 61 27 0.0 0.0 0.00 0.01 0.00 95 1017.8
20260906061525 62 27 0.0 0.0 0.00 0.01 0.00 95 1018.1
20260906060021 62 27 0.0 0.0 0.00 0.01 0.00 95 1017.7
20260906054528 63 27 0.0 0.9 0.00 0.01 0.00 95 1017.3
20260906053018 63 27 0.0 0.0 0.00 0.01 0.00 95 1017.5
20260906051514 63 27 0.0 0.9 0.00 0.01 0.00 94 1017.4
20260906050011 64 27 0.0 0.9 0.00 0.01 0.00 94 1017.3
20260906044510 65 22 0.0 0.0 0.00 0.01 0.01 95 1017.4
20260906043020 65 22 0.0 0.9 0.00 0.01 0.01 95 1017.4
20260906041509 65 24 0.0 1.7 0.00 0.01 0.01 95 1017.0
20260906040009 65 71 0.0 1.7 0.00 0.01 0.01 96 1016.8
20260906034508 64 53 0.9 2.6 0.00 0.01 0.01 96 1017.0
20260906033008 64 4 0.0 2.6 0.00 0.01 0.01 96 1017.0
20260906031509 64 4 0.0 3.5 0.00 0.01 0.01 96 1017.0
20260906030007 63 25 0.0 1.7 0.00 0.01 0.01 95 1016.7
20260906024508 63 24 0.0 0.9 0.00 0.01 0.01 95 1016.9
20260906023006 63 24 0.0 2.6 0.00 0.01 0.01 95 1016.7
20260906021510 63 50 0.0 1.7 0.00 0.01 0.01 95 1016.7
20260906020006 63 50 0.0 0.0 0.00 0.01 0.01 94 1016.6
20260906014513 63 50 0.0 0.0 0.00 0.01 0.01 93 1016.5
20260906013007 63 49 0.0 2.6 0.00 0.01 0.01 92 1016.4
20260906011606 64 50 0.0 0.9 0.00 0.01 0.01 90 1016.4
20260906010057 65 50 0.0 0.9 0.00 0.01 0.01 90 1016.4
20260906004556 66 50 0.0 0.0 0.00 0.01 0.01 88 1016.4
20260906003055 67 50 0.0 0.0 0.00 0.01 0.01 88 1016.5
20260906001554 68 50 0.0 1.7 0.00 0.01 0.01 89 1016.6
20260906000054 68 50 0.0 0.9 0.00 0.01 0.01 89 1016.7
20260905234554 68 50 0.0 2.6 0.00 0.01 0.01 90 1016.5
20260905233053 68 54 2.6 7.8 0.00 0.01 0.01 90 1016.4
20260905231552 68 47 2.6 7.8 0.00 0.01 0.01 89 1016.4
20260905230052 68 40 4.3 9.6 0.00 0.01 0.01 88 1016.7
20260905224551 69 38 3.5 8.7 0.00 0.01 0.01 86 1016.7
20260905223054 69 61 2.6 8.7 0.00 0.01 0.01 86 1016.7
20260905221550 70 48 1.7 8.7 0.00 0.01 0.01 85 1016.8
20260905220050 70 40 2.6 8.7 0.00 0.01 0.01 86 1016.8
20260905214550 70 25 2.6 9.6 0.00 0.01 0.01 85 1017.0
20260905213049 71 54 4.3 10.4 0.00 0.01 0.01 84 1016.9
20260905211548 71 37 3.5 6.1 0.00 0.01 0.01 83 1017.0
20260905210048 71 33 3.5 9.6 0.00 0.01 0.01 83 1017.1
20260905204547 72 42 3.5 8.7 0.00 0.01 0.01 83 1017.1
20260905203048 72 42 2.6 9.6 0.00 0.01 0.01 82 1017.2
20260905201547 72 52 2.6 8.7 0.00 0.01 0.01 82 1017.3
20260905200050 72 336 3.5 8.7 0.00 0.01 0.01 80 1017.4
20260905194547 72 12 3.5 10.4 0.00 0.01 0.01 79 1017.2
20260905193050 72 32 5.2 10.4 0.00 0.01 0.01 78 1017.3
20260905191546 72 22 1.7 7.0 0.00 0.01 0.01 80 1017.2
20260905190054 72 56 1.7 7.0 0.00 0.01 0.01 80 1017.1
20260905184545 72 2 2.6 7.8 0.00 0.01 0.01 82 1017.2
20260905183042 71 8 3.5 9.6 0.00 0.01 0.01 83 1017.2
20260905181546 71 56 2.6 9.6 0.00 0.01 0.01 85 1017.3
20260905180044 71 31 2.6 9.6 0.00 0.01 0.01 86 1017.3
20260905174541 71 349 0.9 7.0 0.00 0.01 0.01 86 1017.4